Hourly Data Report for June 04, 2021

TOBERMORY RCS
ONTARIO
Current Station Operator: ECCC - MSC

45°14'00.000" N
81°38'00.000" W
213.50 m
6128330
71767
TTR

Download Data

Hourly Data (June 2021)
Hourly Data Report for June 4, 2021
TIME
LST
Temp Definition
°C
Dew Point Definition
°C
Rel Hum Definition
%
Precip. Amount Definition
mm

Wind Dir Definition
10's deg

Wind Spd Definition
km/h
Visibility Definition
km
Stn Press Definition
kPa
Hmdx Definition


Wind Chill Definition


Weather Definition


00:00 13.6 10.1 79 0.0 22 8   98.43     LegendNANA
01:00 13.4 10.2 81 0.0 22 4   98.41     LegendNANA
02:00 12.7 10.0 83 0.0 17 4   98.41     LegendNANA
03:00 12.5 9.8 84 0.0 16 1   98.40     LegendNANA
04:00 12.6 10.2 85 0.0 18 2   98.40     LegendNANA
05:00 11.8 9.7 87 0.0 18 3   98.43     LegendNANA
06:00 12.3 9.9 85 0.0 18 5   98.46     LegendNANA
07:00 12.6 10.0 84 0.0 17 6   98.52     LegendNANA
08:00
09:00
10:00
11:00
12:00 20.9 13.4 62 0.0 23 8   98.52     LegendNANA
13:00 21.0 13.5 62 0.0 23 10   98.50     LegendNANA
14:00 20.5 12.9 62 0.0 22 10   98.50     LegendNANA
15:00 20.7 11.8 57 0.0 22 11   98.48     LegendNANA
16:00 20.8 12.5 59 0.0 20 11   98.45     LegendNANA
17:00 20.3 12.6 61 0.0 20 7   98.41     LegendNANA
18:00 18.9 11.9 64 0.0 19 8   98.36     LegendNANA
19:00 17.2 12.0 72 0.0 18 8   98.32     LegendNANA
20:00 15.5 12.2 81 0.0 16 7   98.29     LegendNANA
21:00 15.7 12.2 79 0.0 16 6   98.23     LegendNANA
22:00 17.6 12.1 70 0.0 17 8   98.21     LegendNANA
23:00 17.0 11.9 72 0.0 18 12   98.16     LegendNANA

Notes on Data Quality.

Legend

  • E = Estimated
  • M = Missing
  • NA = Not Available*
  • [empty] = Indicates an unobserved value
Date modified: